TimeCDT,TemperatureF,Dew PointF,Humidity,Sea Level PressureIn,VisibilityMPH,Wind Direction,Wind SpeedMPH,Gust SpeedMPH,PrecipitationIn,Events,Conditions,WindDirDegrees,DateUTC
12:53 AM,73.9,68.0,82,30.06,10.0,SE,3.5,-,N/A,,Clear,140,2013-05-28 05:53:00
1:53 AM,70.0,68.0,93,30.05,10.0,East,5.8,-,N/A,,Clear,90,2013-05-28 06:53:00
2:53 AM,70.0,66.9,90,30.03,10.0,ESE,5.8,-,N/A,,Clear,110,2013-05-28 07:53:00
3:53 AM,69.1,66.9,93,30.02,10.0,ESE,4.6,-,N/A,,Clear,120,2013-05-28 08:53:00
4:53 AM,68.0,66.9,96,30.02,10.0,ESE,3.5,-,N/A,,Clear,110,2013-05-28 09:53:00
5:53 AM,66.9,66.0,97,30.02,9.0,East,4.6,-,N/A,,Clear,100,2013-05-28 10:53:00
6:53 AM,69.1,66.9,93,30.03,10.0,East,4.6,-,N/A,,Partly Cloudy,80,2013-05-28 11:53:00
7:53 AM,73.0,69.1,87,30.03,10.0,ESE,5.8,-,N/A,,Clear,120,2013-05-28 12:53:00
8:53 AM,78.1,70.0,76,30.03,10.0,SE,8.1,-,N/A,,Scattered Clouds,140,2013-05-28 13:53:00
9:37 AM,80.6,69.8,70,30.03,10.0,SE,11.5,-,N/A,,Mostly Cloudy,130,2013-05-28 14:37:00
9:53 AM,79.0,68.0,69,30.03,10.0,SSE,15.0,20.7,N/A,,Mostly Cloudy,150,2013-05-28 14:53:00
10:53 AM,82.9,69.1,63,30.03,10.0,SSE,11.5,19.6,N/A,,Mostly Cloudy,150,2013-05-28 15:53:00
11:53 AM,81.0,68.0,65,30.04,10.0,SSE,11.5,-,0.00,,Mostly Cloudy,150,2013-05-28 16:53:00
12:53 PM,82.0,69.1,65,30.03,10.0,SSE,15.0,18.4,0.00,,Mostly Cloudy,150,2013-05-28 17:53:00
1:53 PM,84.9,69.1,59,30.01,10.0,SE,13.8,-,0.00,,Mostly Cloudy,140,2013-05-28 18:53:00
2:53 PM,81.0,66.9,62,30.00,10.0,East,12.7,24.2,N/A,,Mostly Cloudy,100,2013-05-28 19:53:00
3:53 PM,82.9,73.0,72,29.99,10.0,East,6.9,-,0.01,,Overcast,90,2013-05-28 20:53:00
4:53 PM,82.0,71.1,69,29.98,10.0,East,10.4,-,0.01,,Mostly Cloudy,100,2013-05-28 21:53:00
5:53 PM,81.0,68.0,65,29.97,10.0,East,9.2,-,N/A,,Mostly Cloudy,100,2013-05-28 22:53:00
6:53 PM,80.1,68.0,67,29.97,10.0,East,9.2,-,N/A,,Overcast,90,2013-05-28 23:53:00
7:53 PM,77.0,66.0,69,29.98,10.0,East,8.1,-,N/A,,Scattered Clouds,100,2013-05-29 00:53:00
8:53 PM,75.0,66.0,73,30.00,10.0,East,5.8,-,N/A,,Partly Cloudy,100,2013-05-29 01:53:00
9:53 PM,73.0,66.0,79,30.01,10.0,East,5.8,-,N/A,,Clear,100,2013-05-29 02:53:00
10:53 PM,70.0,66.0,87,30.01,10.0,East,5.8,-,N/A,,Clear,90,2013-05-29 03:53:00
11:53 PM,69.1,64.9,87,30.00,10.0,East,4.6,-,N/A,,Clear,90,2013-05-29 04:53:00